Location: Unspecified
(58.9933°N, 5.6375°E)
Time: 00:06:14
(UTC+02:00)

CZ-3 Stage 3 - Visible Passes

Search period start: 30 September 2016 00:00
Search period end: 10 October 2016 00:00
Orbit: 490 x 34713 km, 30.6° (Epoch: 25 September)

Date Brightness Start Highest point End Pass type
(mag) Time Alt. Az. Time Alt. Az. Time Alt. Az.
30 Sep 8.0 07:40:52 10° ESE 12:33:04 39° SE 13:37:36 10° E visible
01 Oct 9.6 07:47:31 10° E 08:48:06 13° E 09:27:02 10° E visible
01 Oct 6.7 14:03:51 10° SW 20:23:41 22° WSW 20:39:08 10° SSW visible
03 Oct 8.0 07:25:19 10° ESE 12:23:07 40° SE 13:29:03 10° E visible
04 Oct 9.6 07:29:43 10° E 08:38:07 14° E 09:20:26 10° E visible
04 Oct 6.8 13:44:48 10° SW 20:14:23 21° WSW 20:30:20 10° SSW visible
06 Oct 8.0 07:09:52 10° ESE 12:13:06 41° SE 13:20:29 10° E visible
07 Oct 9.6 07:12:19 10° E 08:28:06 14° E 09:13:26 10° E visible
07 Oct 6.8 13:27:09 10° SW 20:05:01 21° WSW 20:21:31 10° SSW visible
09 Oct 8.1 06:54:31 10° ESE 12:03:02 41° SE 13:11:55 10° E visible
